Cosmos 962 Rocket - Orbit

View from above orbital plane
View from above orbital plane
View from above satellite
View from above satellite

Ground track
Ground track

The orbit data is extracted from the following two-line orbital elements,

1 10461U 77107B   13144.83629979  .00000063  00000-0  49152-4 0  3819
2 10461 082.9499 035.2603 0032641 344.0017 084.6871 13.76649922786531
Epoch (UTC): 24 May 2013 20:04:16
Eccentricity: 0.0032641
inclination: 82.9499°
perigee height: 952 km
apogee height: 1000 km
right ascension of ascending node: 35.2603°
argument of perigee: 344.0017°
revolutions per day: 13.76649922
mean anomaly at epoch: 84.6871°
orbit number at epoch: 78653

The dashed part of the orbit path shows where the satellite is in the earth's shadow,  

Developed and maintained by Chris Peat, Heavens-Above GmbH. Please read the updated FAQ before sending e-mail. Imprint. DLR